Weather reports worldwide

Advertisment
Wainfleet, United Kingdom (3392): temperature & dewpoint: 16.01.2019 03:00:00 - 22.01.2019 03:00:00 (GMT)Wainfleet, United Kingdom (3392): temperature -20cm & temperature -100cm: 16.01.2019 03:00:00 - 22.01.2019 03:00:00 (GMT)Wainfleet, United Kingdom (3392): wind speed & gusts: 16.01.2019 03:00:00 - 22.01.2019 03:00:00 (GMT)Wainfleet, United Kingdom (3392): wind direction: 16.01.2019 03:00:00 - 22.01.2019 03:00:00 (GMT)Wainfleet, United Kingdom (3392): reduced air pressure: 16.01.2019 03:00:00 - 22.01.2019 03:00:00 (GMT)Wainfleet, United Kingdom (3392): visibility: 16.01.2019 03:00:00 - 22.01.2019 03:00:00 (GMT)Wainfleet, United Kingdom (3392): precipitation: 16.01.2019 03:00:00 - 22.01.2019 03:00:00 (GMT)
Date & Time tt [°C] td [°C] tt -20cm [°C] tt -100cm [°C] ff [km/h] ff [kn] fx [km/h] fx [kn] dd ppp [hPa] vv [km] rr [mm]
22.01.2019 03:00:00 - - - - - - - - - - - -
22.01.2019 02:00:00 3,7 3,0 - - 41 22 55 30 S 1003,2 3,9 1,6
22.01.2019 01:00:00 3,8 2,8 - - 41 22 52 28 S 1004,9 4,4 0,2
22.01.2019 00:00:00 3,4 1,9 - - 35 19 48 26 S 1006,6 8 0,0
21.01.2019 23:00:00 3,4 1,6 - - 37 20 48 26 S 1008,1 10 0,0
21.01.2019 22:00:00 3,2 1,4 - - 31 17 - - S 1009,7 10 0,0
21.01.2019 21:00:00 3,4 1,2 - - 31 17 - - S 1011,5 11 0,0
21.01.2019 20:00:00 3,7 1,4 - - 34 18 - - SSW 1012,6 11 0,0
21.01.2019 19:00:00 4,0 1,8 - - 28 15 - - S 1014,0 14 0,0
21.01.2019 18:00:00 4,2 2,1 - - 26 14 - - SSW 1015,4 13 0,0
21.01.2019 17:00:00 4,2 2,5 - - 18 10 - - SSW 1016,5 13 0,0
21.01.2019 16:00:00 4,5 2,7 - - 18 10 - - SSW 1017,3 11 0,0
21.01.2019 15:00:00 5,5 3,0 - - 21 11 - - SSW 1018,1 14 0,0
21.01.2019 14:00:00 6,0 3,4 - - 21 11 - - SW 1019,2 13 0,0
21.01.2019 13:00:00 6,0 4,0 - - 18 10 - - SW 1020,3 16 0,0
21.01.2019 12:00:00 5,4 3,7 - - 15 8 - - SSW 1021,2 13 0,0
21.01.2019 11:00:00 3,5 3,0 - - 9 5 - - W 1022,6 6 0,0
21.01.2019 10:00:00 1,6 1,3 - - 13 7 - - W 1023,2 3,1 0,0
21.01.2019 09:00:00 0,6 0,3 5,0 7,2 9 5 - - W 1023,3 3,1 0,0
21.01.2019 08:00:00 0,6 0,2 - - 9 5 - - W 1023,3 2,0 0,0
21.01.2019 07:00:00 0,7 0,2 - - 11 6 - - WNW 1023,6 3,4 0,0
21.01.2019 06:00:00 2,2 1,5 - - 8 4 - - NW 1023,4 4,6 0,0
21.01.2019 05:00:00 2,4 1,6 - - 8 4 - - WNW 1023,6 3,5 0,0
21.01.2019 04:00:00 2,6 1,6 - - 11 6 - - W 1023,6 3,5 0,0
21.01.2019 03:00:00 2,5 1,6 - - 9 5 - - W 1023,7 4,5 0,0
21.01.2019 02:00:00 2,4 1,7 - - 9 5 - - WNW 1023,8 3,3 0,0
21.01.2019 01:00:00 1,8 1,0 - - 9 5 - - W 1023,9 3,2 0,0
21.01.2019 00:00:00 1,6 0,7 - - 8 4 - - W 1023,8 3,8 0,0
20.01.2019 23:00:00 1,5 0,4 - - 8 4 - - W 1023,6 4,5 0,0
20.01.2019 22:00:00 1,2 -0,2 - - 5 3 - - W 1023,2 3,1 0,0
20.01.2019 21:00:00 1,4 -0,2 - - 8 4 - - W 1023,0 4,4 0,0
20.01.2019 20:00:00 0,8 -0,3 - - 9 5 - - WSW 1022,5 4,4 0,0
20.01.2019 19:00:00 0,2 -0,7 - - 8 4 - - SW 1021,9 4,1 0,0
20.01.2019 18:00:00 -0,1 -1,4 - - 5 3 - - WSW 1021,5 4,6 0,0
20.01.2019 17:00:00 1,6 -0,4 - - 5 3 - - W 1020,9 9 0,0
20.01.2019 16:00:00 2,7 0,0 - - 8 4 - - W 1020,5 10 0,0
20.01.2019 15:00:00 4,8 0,2 - - 5 3 - - W 1019,7 20 0,0
20.01.2019 14:00:00 5,4 -0,6 - - 2 1 - - W 1019,2 21 0,0
20.01.2019 13:00:00 4,8 -0,5 - - 8 4 - - W 1019,1 22 0,0
20.01.2019 12:00:00 4,7 1,4 - - 5 3 - - WNW 1019,1 11 0,2
20.01.2019 11:00:00 1,4 -0,1 - - 5 3 - - NW 1018,9 6 0,0
20.01.2019 10:00:00 0,1 -0,6 - - 9 5 - - NW 1018,2 4,4 0,0
20.01.2019 09:00:00 -2,0 -2,6 5,4 7,4 4 2 - - N 1017,3 4,3 0,0
20.01.2019 08:00:00 -2,4 -3,3 - - 4 2 - - NNE 1016,4 4,9 0,0
20.01.2019 07:00:00 -1,0 -2,1 - - 4 2 - - ENE 1015,5 10 0,0
20.01.2019 06:00:00 -0,4 -1,5 - - 9 5 - - ESE 1014,8 11 0,0
20.01.2019 05:00:00 -0,4 -1,2 - - 11 6 - - ESE 1014,5 9 0,0
20.01.2019 04:00:00 -0,5 -1,4 - - 9 5 - - SE 1014,3 8 0,0
20.01.2019 03:00:00 -0,4 -1,2 - - 11 6 - - ESE 1014,1 7 0,0
20.01.2019 02:00:00 0,6 -0,5 - - 13 7 - - SE 1013,5 8 0,0
20.01.2019 01:00:00 0,4 -0,5 - - 11 6 - - SE 1013,4 8 0,0
20.01.2019 00:00:00 0,8 -0,3 - - 11 6 - - SE 1013,1 10 0,0
19.01.2019 23:00:00 0,7 -0,3 - - 11 6 - - SE 1012,7 11 0,0
19.01.2019 22:00:00 0,8 -0,5 - - 11 6 - - SE 1012,2 11 0,0
19.01.2019 21:00:00 2,5 0,3 - - 13 7 - - SSE 1011,8 18 0,0
19.01.2019 20:00:00 3,4 0,6 - - 18 10 - - SSE 1011,3 23 0,0
19.01.2019 19:00:00 3,6 0,6 - - 13 7 - - SSE 1010,9 26 0,0
19.01.2019 18:00:00 3,8 0,4 - - 15 8 - - SE 1010,6 30 0,0
19.01.2019 17:00:00 4,0 0,7 - - 15 8 - - SE 1010,2 30 0,0
19.01.2019 16:00:00 4,1 0,6 - - 16 9 - - SE 1009,9 30 0,0
19.01.2019 15:00:00 4,1 0,0 - - 21 11 - - SE 1009,8 40 0,0
19.01.2019 14:00:00 4,2 0,7 - - 15 8 - - SE 1010,1 30 0,0
19.01.2019 13:00:00 3,7 0,2 - - 22 12 - - SSE 1010,5 35 0,0
19.01.2019 12:00:00 2,8 0,7 - - 24 13 - - SSE 1010,9 24 0,0
19.01.2019 11:00:00 3,4 0,7 - - 28 15 - - SSE 1011,3 28 0,0
19.01.2019 10:00:00 2,5 0,3 - - 26 14 - - SSE 1011,2 20 0,0
19.01.2019 09:00:00 1,8 0,0 5,7 7,7 31 17 - - SSE 1011,0 19 0,0
19.01.2019 08:00:00 1,7 0,0 - - 34 18 - - SSE 1010,7 17 0,0
19.01.2019 07:00:00 2,0 0,3 - - 31 17 46 25 SSE 1010,7 16 0,0
19.01.2019 06:00:00 2,5 0,7 - - 35 19 - - SSE 1010,6 15 0,0
19.01.2019 05:00:00 2,4 0,8 - - 31 17 - - SSE 1011,0 13 0,0
19.01.2019 04:00:00 2,5 0,8 - - 31 17 - - SSE 1011,3 14 0,0
19.01.2019 03:00:00 2,5 0,9 - - 29 16 - - SSE 1011,7 15 0,0
19.01.2019 02:00:00 2,8 0,9 - - 31 17 - - SSE 1011,9 19 0,0
19.01.2019 01:00:00 3,1 1,1 - - 29 16 - - SSE 1012,2 23 0,0
19.01.2019 00:00:00 3,2 1,1 - - 29 16 - - SSE 1012,6 25 0,0
18.01.2019 23:00:00 3,2 0,8 - - 29 16 - - SSE 1012,9 30 0,0
18.01.2019 22:00:00 3,3 0,5 - - 29 16 - - SSE 1013,2 35 0,0
18.01.2019 21:00:00 3,5 0,4 - - 34 18 - - S 1013,2 40 0,0
18.01.2019 20:00:00 3,6 0,7 - - 31 17 - - S 1013,4 35 0,0
18.01.2019 19:00:00 3,9 1,2 - - 29 16 - - SSE 1013,5 30 0,0
18.01.2019 18:00:00 3,9 1,2 - - 31 17 - - SSE 1013,7 29 0,0
18.01.2019 17:00:00 3,5 0,9 - - 28 15 - - SSE 1014,2 25 0,0
18.01.2019 16:00:00 3,5 0,2 - - 26 14 - - SSE 1014,6 30 0,0
18.01.2019 15:00:00 3,5 -0,3 - - 24 13 - - SSE 1014,9 40 0,0
18.01.2019 14:00:00 3,1 -0,5 - - 22 12 - - SSE 1015,5 40 0,0
18.01.2019 13:00:00 2,6 -0,1 - - 22 12 - - S 1016,0 27 0,0
18.01.2019 12:00:00 2,0 -0,3 - - 22 12 - - S 1016,9 26 0,0
18.01.2019 11:00:00 1,6 -0,5 - - 21 11 - - S 1017,5 25 0,0
18.01.2019 10:00:00 0,6 -0,4 - - 13 7 - - S 1017,5 21 0,0
18.01.2019 09:00:00 -0,8 -1,5 6,0 7,7 8 4 - - SSW 1017,5 17 0,0
18.01.2019 08:00:00 -1,5 -2,1 - - 9 5 - - SSW 1017,3 12 0,0
18.01.2019 07:00:00 -2,0 -2,9 - - 8 4 - - SW 1017,3 16 0,0
18.01.2019 06:00:00 -1,9 -2,6 - - 11 6 - - SW 1017,4 15 0,0
18.01.2019 05:00:00 -2,0 -2,6 - - 9 5 - - SW 1017,5 15 0,0
18.01.2019 04:00:00 -1,7 -2,6 - - 8 4 - - SW 1017,6 14 0,0
18.01.2019 03:00:00 -1,2 -2,4 - - 11 6 - - W 1018,0 19 0,0
18.01.2019 02:00:00 -1,1 -2,2 - - 8 4 - - WNW 1017,8 23 0,0
18.01.2019 01:00:00 -0,9 -2,3 - - 9 5 - - WNW 1017,9 23 0,0
18.01.2019 00:00:00 -0,4 -2,2 - - 15 8 - - WNW 1017,8 30 0,0
17.01.2019 23:00:00 -0,4 -2,1 - - 15 8 - - W 1017,5 30 0,0
17.01.2019 22:00:00 0,3 -2,1 - - 18 10 - - NW 1016,7 35 0,0
17.01.2019 21:00:00 0,7 -2,0 - - 24 13 - - WNW 1016,7 40 0,0
17.01.2019 20:00:00 0,5 -2,0 - - 18 10 - - WNW 1016,0 40 0,0
17.01.2019 19:00:00 1,3 -1,8 - - 24 13 - - WNW 1015,7 40 0,0
17.01.2019 18:00:00 1,9 -1,6 - - 24 13 - - NW 1014,8 50 0,0
17.01.2019 17:00:00 2,2 -1,0 - - 24 13 - - WNW 1014,0 50 0,0
17.01.2019 16:00:00 3,2 -0,4 - - 29 16 54 29 NW 1013,1 60 0,0
17.01.2019 15:00:00 4,2 0,0 - - 31 17 46 25 NNW 1011,8 70 0,0
17.01.2019 14:00:00 4,4 -0,3 - - 29 16 50 27 NW 1010,8 75 0,0
17.01.2019 13:00:00 4,2 -0,4 - - 29 16 52 28 NW 1010,0 75 0,0
17.01.2019 12:00:00 3,4 -1,9 - - 37 20 54 29 NW 1009,3 75 0,0
17.01.2019 11:00:00 2,8 -2,5 - - 34 18 50 27 NW 1008,6 75 0,0
17.01.2019 10:00:00 1,5 -3,2 - - 29 16 - - WNW 1007,9 70 0,0
17.01.2019 09:00:00 0,9 -3,2 6,7 7,7 28 15 - - NW 1007,2 70 0,0
17.01.2019 08:00:00 0,7 -2,7 - - 26 14 - - NW 1006,1 75 0,0
17.01.2019 07:00:00 0,8 -0,8 - - 18 10 48 26 WNW 1004,9 75 0,0
17.01.2019 06:00:00 2,5 0,2 - - 28 15 - - NW 1003,9 60 0,0
17.01.2019 05:00:00 2,8 1,3 - - 21 11 - - NW 1002,7 65 0,0
17.01.2019 04:00:00 1,5 0,8 - - 18 10 - - WNW 1001,9 12 0,0
17.01.2019 03:00:00 1,3 0,6 - - 15 8 - - W 1001,5 9 0,0
17.01.2019 02:00:00 2,3 1,6 - - 15 8 - - W 1001,0 12 0,0
17.01.2019 01:00:00 2,8 2,2 - - 18 10 - - WSW 1000,9 14 0,0
17.01.2019 00:00:00 1,5 1,1 - - 15 8 - - WSW 1000,8 5 0,0
16.01.2019 23:00:00 1,7 1,2 - - 11 6 - - SW 1000,8 4,4 0,0
16.01.2019 22:00:00 2,2 1,6 - - 13 7 - - WSW 1000,5 6 0,0
16.01.2019 21:00:00 2,6 1,9 - - 15 8 - - WSW 1000,3 24 0,0
16.01.2019 20:00:00 3,5 2,6 - - 18 10 - - WSW 1000,0 23 0,0
16.01.2019 19:00:00 4,4 3,4 - - 18 10 - - WSW 999,9 30 0,0
16.01.2019 18:00:00 4,7 3,4 - - 15 8 - - WSW 999,7 75 0,0
16.01.2019 17:00:00 5,0 3,5 - - 15 8 - - WSW 999,8 75 0,2
16.01.2019 16:00:00 5,3 3,3 - - 21 11 - - W 999,9 26 1,0
16.01.2019 15:00:00 6,4 5,4 - - 26 14 - - WNW 999,5 4,8 0,6
16.01.2019 14:00:00 7,2 5,8 - - 22 12 - - WNW 999,5 35 1,2
16.01.2019 13:00:00 9,1 7,6 - - 28 15 - - SW 999,2 70 0,0
16.01.2019 12:00:00 9,4 7,4 - - 34 18 - - SW 1000,1 80 0,0
16.01.2019 11:00:00 8,5 7,4 - - 31 17 - - SSW 1001,0 45 0,0
16.01.2019 10:00:00 8,1 6,8 - - 31 17 - - SSW 1001,7 40 0,0
16.01.2019 09:00:00 7,4 6,2 6,7 7,7 31 17 - - SSW 1002,1 40 0,0
16.01.2019 08:00:00 7,6 6,6 - - 29 16 - - SW 1002,7 70 0,0
16.01.2019 07:00:00 8,1 6,7 - - 26 14 - - SW 1003,3 75 0,0
16.01.2019 06:00:00 7,7 6,5 - - 34 18 - - SW 1004,0 75 0,0
16.01.2019 05:00:00 7,5 6,1 - - 34 18 - - SSW 1004,6 65 0,0
16.01.2019 04:00:00 7,0 5,7 - - 34 18 - - SSW 1005,4 40 0,0
16.01.2019 03:00:00 7,0 5,7 - - 26 14 - - SSW 1006,7 40 0,0

tt = temperature
td = dewpoint
tt -20cm = temperature -20cm
tt -100cm = temperature -100cm
ff = wind speed
fx = gusts
dd = wind direction
ppp = reduced air pressure
vv = visibility
rr = precipitation

Next stations